マスター彗星

C/2015 G2 ( MASTER )

English version
Home page
Updated on June 11, 2016

---------------------------------------------------------------------

・ プロフィール

発見日 2015年4月7日
発見光度 10.7等
発見者 Mobile Astronomical System of the Telescope-Robots (South African Astronomical Observatory)

・ 写真集

・ 軌道要素

Epoch 2015 May 18.0 TT = JDT 2457160.5
T 2015 May 23.78567 TT                                  MPCW
q   0.7798764            (2000.0)            P               Q
z  -0.0004735      Peri.  257.45850     -0.69940303     -0.50694396
 +/-0.0000009      Node   110.05822     -0.23812565     +0.82992654
e   1.0003692      Incl.  147.56369     -0.67389285     +0.23287284
From 482 observations 2015 Apr. 8-2016 Feb. 5, mean residual 0".6.

・ 星図

・ 光度変化

        m1 = 8.5 + 5 logΔ + 12.0 log r

---------------------------------------------------------------------

軌道要素はM.P.E.C. 2016-H35に掲載されたものです。
星図はステラナビゲータ Ver.8 (アストロアーツ) で作成したものです。
光度グラフはComet for Windowsで作成したものです。

---------------------------------------------------------------------

Copyright(C) Seiichi Yoshida (comet@aerith.net). All rights reserved.